CAPE
0 8 30 19 51 20 13 7 4 1 9 28 98 59 40 148 172 370 477 578 633 630 544 509 532 528 572 638 571 555 545 540 571 520 494 459 442 437 426 366 331 378 391 327 252 174 97 66 50 52 78 118 151 266 284 126 81 56 69 152 277 509 597 554 455 394 341 285 300 399 555 709 834 831 859 980 1074 1198 1295 1370 1460 1554 1618 1696 1742
0 12 24 23 0 2 0 0 0 0 0 0 6 5 4 17 281 414 535 636 686 643 544 528 577 691 725 655 531 440 418 442 464 471 493 471 463 454 466 464 440 484 512 507 456 300 212 194 188 181 200 197 197 216 244 98 22 18 26 36 102 306 518 451 363 312 272 246 217 157 287 492 754 901 1139 1166 1192 1318 1393 1406 1496 1562 1576 1575 1586
0 15 14 1 0 0 0 0 0 0 0 0 0 0 3 23 246 471 640 753 759 737 634 619 663 674 628 557 458 370 330 330 331 308 339 386 364 351 369 388 414 502 628 672 636 534 362 259 234 220 192 157 146 197 232 117 10 5 1 10 11 91 324 378 249 187 238 212 207 244 477 670 792 878 942 1044 1004 958 970 1045 1072 1028 985 979 987
1 9 1 0 0 0 0 0 0 0 0 0 0 0 4 36 189 477 731 824 854 822 826 877 845 738 638 553 429 325 302 328 338 303 268 232 313 337 368 371 366 373 370 402 426 438 352 268 223 206 185 138 80 104 195 150 45 3 1 0 0 2 112 302 352 279 252 214 209 220 350 540 750 879 940 955 955 1040 999 937 863 787 785 820 868
1 1 0 0 0 0 0 0 0 0 2 0 7 12 18 70 196 504 688 839 931 975 1009 1000 952 902 765 615 436 320 309 370 392 351 237 294 305 310 332 330 343 359 380 352 334 286 244 212 184 180 182 145 83 99 151 151 103 36 0 0 0 0 20 128 241 304 288 225 219 246 294 367 501 578 660 785 818 774 712 632 680 734 765 792 889
0 1 0 0 0 0 0 0 0 57 62 192 44 13 48 108 202 375 710 876 982 1092 1137 1158 1015 981 866 665 448 334 322 406 426 368 304 254 222 214 222 232 232 248 214 215 230 170 121 60 62 90 110 104 85 82 118 124 129 116 36 0 0 0 4 55 144 218 250 244 231 278 322 424 522 508 377 441 459 480 501 523 546 585 576 512 531
0 0 0 0 0 0 0 0 343 490 414 297 146 70 78 98 211 402 638 851 1003 1124 1249 1225 1143 1038 888 683 460 364 346 400 374 416 369 294 207 226 218 218 250 272 233 200 168 127 76 102 107 95 89 97 129 142 135 122 116 90 51 0 3 1 3 15 104 116 165 218 240 260 309 336 323 292 79 80 302 356 393 412 468 544 467 165 302
0 0 0 0 0 0 0 0 458 656 591 428 310 296 32 54 136 236 492 685 859 946 1027 1128 1104 986 838 653 453 396 294 344 312 274 213 175 228 247 181 186 169 119 40 30 32 34 25 22 58 112 115 122 138 156 168 117 84 62 54 62 58 20 0 0 20 60 66 130 152 182 214 236 197 0 0 0 168 222 346 362 442 375 147 0 0
0 0 0 0 0 0 0 0 500 772 696 430 244 392 414 264 159 281 426 490 613 647 726 881 933 882 764 598 410 211 285 301 183 163 126 103 132 142 135 113 65 38 109 130 108 92 60 32 10 3 44 109 25 20 94 93 76 56 56 66 60 26 0 0 9 28 28 20 40 108 78 103 70 0 0 0 3 245 284 338 320 0 119 0 0
0 0 0 0 0 0 0 6 384 811 775 554 397 489 557 519 376 320 276 269 306 408 488 709 823 780 688 562 323 276 353 344 50 41 12 2 2 3 64 76 60 34 72 138 128 88 60 38 62 84 46 4 0 0 0 0 38 50 53 62 52 16 0 4 12 4 0 0 2 15 18 14 18 2 48 6 209 317 440 410 174 129 0 0 0
0 0 0 0 0 0 0 8 501 730 689 555 474 558 711 692 575 394 303 314 357 360 506 536 548 574 580 404 217 331 396 354 0 2 2 0 1 1 0 0 26 16 2 19 43 65 60 46 30 50 55 54 42 0 0 0 0 0 2 26 34 12 3 0 0 0 2 2 7 88 36 123 84 116 156 158 176 319 454 295 94 48 23 41 59
0 0 0 0 0 0 0 4 44 578 411 30 19 528 794 823 698 546 450 345 336 456 429 394 351 396 501 364 267 396 406 221 1 0 0 0 0 2 2 0 0 24 36 56 58 60 69 78 107 77 85 50 42 22 0 0 0 0 0 0 0 0 0 12 46 76 41 39 92 128 189 190 88 88 97 119 234 444 424 106 35 0 1 11 6
0 0 0 0 0 0 0 2 38 47 22 7 12 482 765 874 793 609 457 359 373 381 344 272 251 358 454 348 211 397 354 163 6 0 0 0 0 0 0 0 0 38 87 174 202 156 111 77 26 92 131 130 134 86 48 18 0 3 0 0 0 0 0 0 28 103 131 165 172 202 183 120 70 84 115 268 464 394 34 0 0 0 0 0 1
0 0 0 0 0 0 0 0 0 0 0 0 12 104 651 841 806 610 412 278 226 226 218 241 305 446 509 413 212 332 339 164 40 4 0 0 0 0 3 81 56 87 225 272 234 136 74 44 83 153 252 154 70 83 79 40 22 71 68 44 18 0 0 71 115 187 287 239 168 120 102 54 45 132 305 484 338 18 0 0 0 0 0 0 0
0 0 0 0 0 0 0 0 0 0 0 3 47 170 638 820 764 320 140 128 140 170 242 315 454 584 444 292 299 399 346 186 56 0 0 0 0 0 14 26 107 159 262 296 110 30 9 24 150 224 282 158 76 76 86 25 9 57 67 60 56 14 100 148 203 221 126 101 221 98 48 66 99 233 350 246 114 24 3 1 0 0 0 61 250
0 0 0 0 0 0 0 0 0 0 0 7 256 509 716 781 673 242 275 87 70 146 251 410 558 442 312 249 273 227 253 181 64 0 0 0 0 1 22 104 188 272 298 61 59 33 1 16 48 188 311 162 82 55 100 50 47 8 40 64 107 124 150 199 248 216 231 194 113 83 106 134 224 254 225 170 127 59 242 222 274 390 520 556 486
0 0 0 0 0 0 0 0 0 0 0 3 345 586 791 825 625 206 122 22 25 81 237 328 512 456 306 266 244 178 214 200 83 0 0 0 0 2 9 198 285 162 36 37 10 12 14 22 112 120 26 58 37 93 142 128 0 14 21 96 86 85 213 254 217 172 125 94 104 130 178 218 201 201 183 160 126 235 418 497 578 636 626 466 366
0 0 0 0 0 0 0 0 0 0 0 2 261 692 870 865 597 210 112 10 15 67 334 372 480 454 375 252 266 264 232 266 134 30 0 0 0 7 2 40 93 78 58 38 13 21 38 1 2 41 78 34 30 2 24 46 12 7 34 65 69 52 70 150 162 110 117 145 157 160 168 198 218 237 240 101 270 310 472 343 386 444 487 399 424
0 0 0 0 0 0 0 0 0 0 0 496 704 863 904 843 655 108 2 0 172 16 314 536 475 378 296 295 374 296 377 412 199 51 0 0 0 6 5 2 47 53 38 40 34 30 22 4 8 5 40 9 19 32 47 61 50 50 38 25 18 4 8 49 35 14 41 107 146 197 203 183 229 247 199 353 564 693 651 565 460 400 472 339 232
386 384 407 390 233 0 6 30 7 7 80 657 923 942 887 550 5 1 2 4 237 10 55 460 560 408 399 283 299 244 414 448 258 83 44 34 38 18 0 0 0 15 36 31 48 26 4 9 7 24 23 5 4 8 13 18 62 24 34 36 23 20 5 42 50 52 42 90 104 132 218 232 248 252 243 208 458 596 578 700 556 300 372 353 390
525 498 486 522 461 0 0 4 9 7 90 636 830 674 265 0 0 3 16 11 269 0 8 45 177 187 214 332 305 224 326 409 228 145 72 61 65 31 1 0 0 0 2 21 30 46 53 63 32 12 9 0 2 10 28 39 42 51 38 66 62 41 38 50 56 37 29 40 54 175 236 331 322 334 258 340 388 508 571 568 526 266 607 822 854
420 360 431 613 586 1 16 14 58 103 198 547 369 42 0 0 0 0 7 11 192 2 0 0 0 0 4 138 314 284 236 376 198 152 82 66 88 69 17 0 0 0 0 4 30 36 31 26 43 42 20 40 50 22 27 38 20 52 65 37 44 66 80 116 108 107 80 4 170 244 376 226 276 216 187 113 83 10 108 194 215 258 274 250 477
334 448 644 804 705 427 48 2 31 22 7 16 104 22 0 0 0 0 0 0 10 4 0 0 0 0 0 6 174 238 214 312 293 135 89 193 110 101 56 17 20 0 0 0 10 32 22 25 34 41 51 54 36 40 30 13 55 60 62 42 42 19 56 105 42 101 106 103 160 393 254 188 117 88 73 63 66 128 172 196 172 144 164 271 556
516 637 792 844 720 139 8 33 10 0 0 0 0 0 0 0 0 0 0 0 0 0 0 0 0 0 0 0 16 69 154 344 255 150 160 324 284 154 125 80 58 50 29 16 10 2 0 8 22 37 28 17 29 26 26 35 16 23 35 45 48 55 46 29 49 110 74 171 288 182 116 84 77 54 45 33 36 61 36 157 341 383 317 303 514
643 781 928 948 526 4 0 0 0 0 0 0 0 0 0 0 0 0 0 0 0 0 0 0 0 0 0 0 0 10 34 211 216 172 296 454 504 246 184 144 127 114 95 60 34 25 14 6 10 19 18 20 17 16 24 49 59 62 68 65 56 61 54 43 56 98 110 106 132 92 89 98 83 60 46 39 53 38 110 138 212 684 1098 916 928
396 582 764 778 0 0 0 2 0 0 0 0 0 0 0 0 0 0 0 0 0 0 0 0 0 0 0 0 0 3 49 221 207 228 314 334 574 506 316 204 168 170 164 130 95 64 37 31 34 47 49 26 18 22 26 36 62 72 68 54 59 38 39 24 9 29 54 80 66 48 68 34 45 18 14 72 166 148 154 216 308 298 734 915 756
387 593 867 587 0 2 42 5 0 0 0 0 0 0 0 0 0 0 0 0 0 0 0 0 0 0 0 0 0 2 34 193 206 20 2 20 52 419 481 438 271 183 152 118 114 108 83 70 50 54 54 40 23 1 7 23 30 45 60 69 69 60 47 26 41 26 6 48 34 49 16 17 6 10 6 8 50 100 69 62 144 290 313 134 134
528 794 901 47 8 0 0 612 1218 308 0 0 0 0 0 0 0 0 0 0 0 0 0 0 0 0 0 0 0 0 22 23 7 0 0 0 0 0 186 374 368 262 180 107 91 96 114 85 63 60 57 52 53 40 18 4 0 0 8 20 17 11 7 14 26 30 26 7 20 4 0 0 4 6 7 7 4 40 135 162 146 138 224 166 127
1023 976 369 0 0 674 49 121 187 1 0 0 0 0 0 0 0 0 0 0 0 0 0 0 0 0 0 0 0 0 0 0 0 0 0 0 0 0 0 5 146 282 284 219 159 143 133 94 106 75 80 74 69 62 62 56 35 8 2 0 0 9 7 4 10 20 23 12 18 6 2 14 7 4 3 12 12 6 0 2 34 57 44 50 35
665 642 0 0 0 222 297 0 0 0 0 0 0 0 524 0 0 0 0 0 0 0 0 0 0 0 0 0 0 0 0 0 0 0 0 0 0 0 0 0 0 0 84 223 197 156 152 124 116 103 102 101 92 86 78 65 60 49 29 16 8 0 0 0 0 0 4 9 11 13 9 6 11 10 9 3 2 2 0 0 0 6 13 2 4
326 184 20 0 4 53 57 0 0 0 0 0 0 1 0 0 0 0 0 0 0 0 0 0 0 0 0 0 0 0 0 0 0 0 0 0 0 0 0 0 0 0 0 0 109 114 102 78 55 18 24 67 84 78 70 60 56 51 54 44 30 24 18 2 1 0 12 6 1 2 1 4 3 1 1 1 0 0 0 0 0 0 2 3 8
191 39 2 0 102 854 82 0 0 2 0 0 0 0 0 0 7 1 0 0 0 0 0 0 0 0 0 0 0 0 0 0 0 0 0 0 0 0 0 0 0 0 0 0 0 0 0 2 2 2 3 4 6 9 8 12 18 29 22 51 46 35 41 40 34 28 32 25 16 15 12 1 2 2 0 0 1 1 1 0 0 1 1 5 8
109 0 1 77 262 926 1033 84 78 10 0 0 0 0 0 0 0 0 0 0 0 0 0 0 0 0 0 0 0 0 0 0 0 0 0 0 0 0 0 0 0 0 0 0 0 0 0 0 0 0 0 0 12 13 0 0 6 2 29 40 52 54 53 53 55 51 50 56 53 43 38 30 10 2 1 1 1 1 0 0 0 0 0 0 0
696 543 232 11 39 0 214 705 541 10 0 0 18 39 10 7 5 0 0 0 0 0 0 0 0 0 0 0 0 0 0 0 0 0 0 0 0 0 0 0 0 0 0 0 0 0 0 0 0 0 0 17 13 6 3 1 0 0 0 0 17 18 55 71 78 77 66 69 70 70 64 57 56 38 11 0 0 0 0 0 0 0 0 6 22
700 701 1244 1436 412 241 106 0 0 9 77 75 0 17 18 72 100 3 0 0 0 0 0 0 0 0 0 0 0 0 0 0 0 0 0 0 0 0 0 0 0 0 0 0 0 0 0 0 0 0 0 0 2 12 12 8 3 2 0 20 42 3 0 1 51 95 97 97 103 106 90 75 66 58 46 31 25 16 6 0 0 0 0 4 40
189 4 0 312 1148 1131 418 32 277 112 266 61 30 46 43 13 0 0 0 0 0 0 1 2 1 0 0 0 0 0 0 0 0 0 0 0 0 0 0 0 0 0 0 0 0 0 0 0 0 0 0 0 0 0 2 2 17 15 7 16 33 20 58 49 17 48 102 126 141 141 133 108 88 81 67 40 39 34 0 0 0 0 0 3 26
781 670 200 160 452 276 411 345 304 233 72 0 0 1 4 3 0 0 0 1 3 4 4 1 0 0 0 0 0 0 0 0 0 0 0 0 0 0 0 0 0 0 0 0 0 0 0 0 0 0 0 0 0 0 0 0 2 7 3 0 0 52 112 102 80 94 126 151 160 145 123 108 99 78 65 65 64 64 24 0 0 0 0 0 0
760 852 531 274 94 234 230 213 197 208 162 14 0 0 0 0 1 2 3 4 6 5 1 1 1 0 0 0 0 1 0 0 0 0 0 0 0 3 4 3 3 1 2 3 4 3 2 1 1 0 0 0 0 0 0 0 0 0 0 0 2 2 48 87 117 131 123 109 98 90 90 89 79 86 86 86 90 77 37 0 0 0 0 0 0
432 180 48 26 131 205 204 221 230 178 109 26 0 14 3 2 2 2 4 5 6 4 3 2 1 1 0 0 0 0 0 0 1 2 2 2 2 1 2 2 2 2 4 4 2 1 0 0 0 0 0 0 0 0 0 0 0 0 0 0 0 0 0 0 16 83 160 152 143 136 124 113 118 122 124 118 108 91 68 0 0 0 0 0 0
228 155 97 91 265 260 246 204 190 127 44 0 0 2 4 4 4 4 4 2 3 6 4 3 2 1 1 0 0 0 2 2 2 2 2 2 1 1 0 2 3 3 2 1 0 0 0 0 0 0 0 0 0 17 0 0 0 0 0 0 0 0 0 0 20 42 86 90 105 152 170 183 171 152 136 122 121 116 115 113 81 45 14 9 3
158 138 175 254 204 194 231 154 113 28 2 1 0 1 4 7 5 4 2 2 2 2 4 4 2 1 0 0 0 0 2 2 2 2 3 4 3 2 2 3 3 2 1 1 0 0 0 0 0 0 0 0 0 0 0 0 0 27 18 13 1 0 0 40 46 48 44 39 31 26 24 35 73 114 119 121 120 124 128 132 134 124 104 72 52
147 182 270 224 181 182 151 119 72 10 24 4 1 1 2 2 2 4 3 2 4 3 3 3 3 2 0 0 0 0 0 2 2 2 1 1 2 2 6 6 4 3 2 1 0 0 0 0 0 0 0 0 0 0 0 0 5 9 27 24 26 40 46 48 52 49 44 39 10 0 0 0 0 0 43 62 74 92 103 116 138 146 134 116 94
233 254 153 34 176 226 136 94 66 60 48 26 9 4 4 2 1 2 2 3 2 3 3 2 2 2 3 1 0 0 0 1 4 2 2 1 1 1 0 7 6 3 4 3 3 2 0 0 0 0 0 0 1 0 0 0 0 26 11 38 36 35 41 48 54 54 53 46 42 6 0 1 0 0 0 0 19 74 78 96 123 147 151 143 129
40 172 224 164 143 85 54 46 48 36 29 15 3 3 3 2 2 2 2 2 2 2 2 2 2 2 3 2 0 0 2 2 1 2 2 4 4 5 4 4 6 6 5 2 2 2 2 2 1 0 2 3 2 0 9 12 12 4 0 0 6 50 48 40 37 45 48 48 43 38 38 36 32 52 66 66 32 0 47 88 106 116 111 98 112
112 100 82 63 54 54 44 40 32 10 2 0 0 0 3 1 2 2 3 2 6 4 3 3 4 3 3 2 2 0 2 4 5 5 7 6 8 8 8 10 10 9 6 4 2 2 7 8 2 1 2 2 1 3 0 0 9 21 20 20 19 20 20 16 8 0 2 4 6 5 3 4 6 40 47 52 47 44 42 58 91 103 116 112 134
84 70 54 44 30 15 8 0 0 0 0 0 0 0 0 0 2 3 4 4 4 3 2 2 2 3 3 1 1 1 3 8 9 7 6 6 7 7 9 10 10 10 9 7 5 4 4 10 3 3 5 5 3 1 0 0 1 0 0 0 1 3 10 5 22 30 29 21 10 8 12 15 16 10 6 0 0 1 55 70 68 76 81 68 18
13 1 0 0 0 0 0 0 0 0 0 0 0 0 0 0 0 1 4 6 5 6 2 3 4 2 1 0 0 0 1 4 7 7 5 4 5 6 6 10 11 9 10 12 10 7 8 8 6 6 7 8 4 2 5 0 4 6 2 0 0 2 4 3 6 12 20 7 6 6 27 28 11 20 12 13 33 34 69 73 70 64 59 61 90
0 0 0 0 0 0 0 0 0 0 0 0 0 0 0 0 0 0 0 0 0 0 0 0 2 3 0 0 0 0 0 0 0 0 0 0 1 4 4 6 12 10 8 8 8 7 11 10 8 7 11 10 5 10 6 3 0 4 1 0 0 0 0 4 9 10 11 14 16 12 14 13 9 14 29 25 15 27 44 2 1 1 0 0 0
0 0 0 0 0 0 0 0 0 0 0 0 0 0 0 0 0 0 0 0 0 0 0 0 0 0 1 0 0 0 0 0 0 0 0 0 0 1 2 0 8 13 6 7 8 6 5 6 11 8 6 5 4 10 12 6 6 2 3 2 2 1 0 0 1 4 10 12 8 5 7 10 2 0 4 7 13 14 16 19 2 0 0 1 0
0 0 0 0 0 0 0 0 0 0 0 0 0 0 0 0 0 0 0 0 0 0 0 0 0 0 0 0 0 0 0 0 0 0 0 0 0 0 0 0 0 1 9 10 9 7 2 0 0 2 6 6 6 4 2 4 4 1 1 2 0 0 0 0 0 0 0 0 0 1 2 5 2 1 0 0 4 15 16 18 25 10 1 0 0
0 0 0 0 0 0 0 0 0 0 0 0 0 0 0 0 0 0 0 0 0 0 0 0 0 0 0 0 0 0 0 0 0 0 0 0 0 0 0 0 0 0 0 2 4 2 0 0 0 0 0 1 1 4 2 2 1 1 0 0 0 0 0 0 0 0 0 0 0 2 3 2 3 2 2 2 3 8 14 13 9 13 27 11 6
Wind_Speed
nan nan nan nan nan nan nan nan nan nan nan nan nan nan nan 33 33 33 33 33 34 35 36 35 34 33 34 34 33 32 32 31 31 31 30 30 31 30 30 32 32 31 31 31 32 32 nan nan nan nan nan 37 37 37 39 40 nan nan nan 36 34 33 32 29 23 22 30 34 34 34 36 35 33 31 29 30 31 31 32 32 32 33 33 33 32
nan nan nan nan nan nan nan nan nan nan nan nan nan nan nan nan 35 36 35 34 35 34 34 34 32 31 31 32 31 30 29 29 28 30 28 28 29 31 30 30 31 31 32 31 33 33 32 31 30 31 35 35 35 35 37 nan nan nan nan nan 35 34 34 30 25 25 26 38 34 35 33 34 29 33 29 29 29 32 32 32 34 34 33 33 33
nan nan nan nan nan nan nan nan nan nan nan nan nan nan nan nan 35 35 34 33 33 33 31 29 28 27 27 28 29 28 27 27 28 28 27 26 26 28 29 29 29 29 29 30 32 33 32 31 31 32 36 35 35 34 36 39 nan nan nan nan nan nan 34 30 31 28 27 33 38 36 33 32 29 29 29 29 31 32 31 31 31 33 34 33 33
nan nan nan nan nan nan nan nan nan nan nan nan nan nan nan nan 33 32 32 32 30 29 28 26 25 24 23 24 26 26 26 26 26 26 26 26 26 26 26 26 26 27 27 30 32 32 31 31 30 31 34 35 nan 34 35 39 nan nan nan nan nan nan 36 33 32 31 32 33 36 32 33 32 29 30 31 32 31 31 29 29 32 32 32 33 33
nan nan nan nan nan nan nan nan nan nan nan nan nan nan nan nan 31 30 29 29 28 27 25 24 22 21 21 22 24 25 25 25 24 23 25 26 26 25 24 23 25 25 26 28 30 30 31 29 27 29 32 33 nan nan 35 35 40 nan nan nan nan nan nan 37 34 33 31 30 32 35 35 33 31 31 31 30 30 30 30 28 29 30 32 32 34
nan nan nan nan nan nan nan nan nan nan nan 32 nan nan nan 30 29 28 28 27 26 24 23 23 21 19 20 21 22 23 24 25 24 22 22 23 23 24 24 23 23 25 25 25 26 29 30 nan nan nan 32 33 nan nan 32 33 36 40 nan nan nan nan nan nan 37 35 31 28 30 33 36 32 32 30 31 30 29 27 27 27 30 30 30 30 31
nan nan nan nan nan nan nan nan 34 32 32 31 31 nan nan nan 27 27 27 26 23 21 19 19 18 17 17 20 19 20 22 24 24 22 21 21 21 22 22 22 22 25 25 25 25 26 nan 29 28 nan nan nan 32 29 30 32 35 nan nan nan nan nan nan nan 39 38 35 31 32 32 32 33 31 28 nan nan 27 25 24 26 26 27 28 28 29
nan nan nan nan nan nan nan nan 32 31 31 30 29 28 nan nan 27 28 27 23 22 21 18 16 15 16 16 18 16 18 20 23 26 27 26 22 21 21 22 22 22 23 nan nan nan nan nan nan nan 27 27 31 34 30 29 32 nan nan nan nan nan nan nan nan nan nan nan 35 31 31 33 33 33 nan nan nan 24 24 24 26 22 22 23 nan nan
nan nan nan nan nan nan nan nan 32 31 30 29 27 27 27 27 28 28 27 23 21 20 17 15 14 14 16 16 12 12 15 21 25 27 26 24 21 19 20 20 nan nan 21 23 25 nan nan nan nan nan nan 27 nan nan nan nan nan nan nan nan nan nan nan nan nan nan nan nan nan 32 nan 34 nan nan nan nan nan 18 29 28 22 nan 23 nan nan
nan nan nan nan nan nan nan nan 30 30 29 27 26 26 26 26 26 27 24 21 19 17 14 12 13 13 13 13 10 8 11 15 nan nan nan nan nan nan nan nan nan nan nan 21 23 nan nan nan nan nan nan nan nan nan nan nan nan nan nan nan nan nan nan nan nan nan nan nan nan nan nan nan nan nan nan nan 25 29 30 28 24 22 nan nan nan
nan nan nan nan nan nan nan nan 30 28 28 26 25 26 26 26 26 25 23 21 18 15 14 13 12 12 11 11 8 8 9 11 nan nan nan nan nan nan nan nan nan nan nan nan nan nan nan nan nan nan nan nan nan nan nan nan nan nan nan nan nan nan nan nan nan nan nan nan nan nan nan 30 nan 32 29 28 30 27 27 28 nan nan nan nan nan
nan nan nan nan nan nan nan nan nan 26 26 nan nan 25 27 26 26 25 23 20 19 17 16 15 15 13 10 9 8 9 8 8 nan nan nan nan nan nan nan nan nan nan nan nan nan nan nan nan 21 nan nan nan nan nan nan nan nan nan nan nan nan nan nan nan nan nan nan nan nan 34 33 31 nan nan nan 33 30 31 29 27 nan nan nan nan nan
nan nan nan nan nan nan nan nan nan nan nan nan nan 24 25 26 26 25 22 22 21 19 17 17 15 13 10 10 9 9 9 9 nan nan nan nan nan nan nan nan nan nan nan 16 15 14 14 nan nan nan 24 22 27 nan nan nan nan nan nan nan nan nan nan nan nan 33 35 32 33 34 33 32 nan nan 36 36 38 33 nan nan nan nan nan nan nan
nan nan nan nan nan nan nan nan nan nan nan nan nan 23 25 25 25 25 24 22 22 20 17 15 14 12 10 10 9 10 11 10 nan nan nan nan nan nan nan nan nan nan 16 16 16 15 nan nan nan 16 23 27 nan nan nan nan nan nan nan nan nan nan nan nan 26 28 32 34 33 31 32 nan nan 35 36 39 39 nan nan nan nan nan nan nan nan
nan nan nan nan nan nan nan nan nan nan nan nan nan 22 23 24 24 24 23 22 21 19 16 13 13 12 9 8 10 10 13 10 nan nan nan nan nan nan nan nan 13 14 17 18 17 nan nan nan 10 14 20 25 nan nan nan nan nan nan nan nan nan nan nan 28 28 30 31 31 32 nan nan nan nan 39 43 41 35 nan nan nan nan nan nan nan 33
nan nan nan nan nan nan nan nan nan nan nan nan 22 21 22 23 23 22 22 nan nan 20 16 15 13 12 8 7 9 10 13 12 nan nan nan nan nan nan nan 19 17 21 24 nan nan nan nan nan nan 17 19 21 nan nan nan nan nan nan nan nan 36 35 34 31 28 28 29 30 32 nan 37 41 41 42 44 42 37 nan 39 39 39 37 35 33 31
nan nan nan nan nan nan nan nan nan nan nan nan 21 20 20 20 20 23 20 nan nan nan 14 13 14 13 10 7 7 9 13 14 nan nan nan nan nan nan nan 19 20 26 nan nan nan nan nan nan 22 21 nan nan nan nan 37 42 nan nan nan nan nan nan 38 37 34 31 30 nan 33 36 40 43 42 43 44 43 40 40 41 39 36 37 37 36 36
nan nan nan nan nan nan nan nan nan nan nan nan 20 18 19 21 21 22 20 nan nan nan 14 12 14 16 14 11 9 6 8 12 16 nan nan nan nan nan nan nan nan nan nan nan nan nan nan nan nan nan nan nan nan nan nan nan nan nan nan nan nan nan nan 40 39 37 35 37 39 42 44 43 43 45 46 44 43 43 42 38 40 40 37 38 37
nan nan nan nan nan nan nan nan nan nan nan 23 21 18 17 17 18 20 nan nan 16 nan 14 13 12 15 17 15 10 6 5 7 13 nan nan nan nan nan nan nan nan nan nan nan nan nan nan nan nan nan nan nan nan nan nan nan nan nan nan nan nan nan nan nan nan nan nan 44 45 49 49 47 48 48 48 46 44 42 42 43 45 40 37 36 36
41 39 35 30 27 nan nan nan nan nan nan 23 21 18 18 17 nan nan nan nan 14 nan nan 14 13 13 16 16 14 10 4 5 6 nan nan nan nan nan nan nan nan nan nan nan nan nan nan nan nan nan nan nan nan nan nan nan nan nan nan nan nan nan nan nan nan nan nan nan 41 42 44 50 52 50 50 48 46 43 43 42 41 40 36 35 34
39 36 32 29 27 nan nan nan nan nan nan 23 20 17 18 nan nan nan nan nan 16 nan nan nan 15 14 15 17 15 12 10 5 0 8 nan nan nan nan nan nan nan nan nan nan nan nan nan nan nan nan nan nan nan nan nan nan nan nan nan nan nan nan nan nan nan nan nan nan nan 42 44 46 50 48 47 44 44 46 46 42 37 36 34 33 33
37 35 32 29 27 nan nan nan nan 23 22 20 18 nan nan nan nan nan nan nan 17 nan nan nan nan nan nan 18 17 13 13 10 5 3 nan nan nan nan nan nan nan nan nan nan nan nan nan nan nan nan nan nan nan nan nan nan nan nan nan nan nan nan nan 47 44 39 nan nan 42 45 46 45 43 44 47 47 nan nan 44 39 34 32 33 33 32
36 35 33 29 27 26 nan nan nan nan nan nan 19 nan nan nan nan nan nan nan nan nan nan nan nan nan nan nan 19 17 15 14 11 6 nan 8 17 25 nan nan nan nan nan nan nan nan nan nan nan nan nan nan nan nan nan nan nan nan nan nan nan nan nan 48 nan 45 44 45 48 50 48 44 43 nan nan nan nan 46 41 36 33 32 32 32 31
35 35 33 29 27 26 nan nan nan nan nan nan nan nan nan nan nan nan nan nan nan nan nan nan nan nan nan nan nan nan 16 16 13 9 6 3 5 12 20 nan nan nan nan nan nan nan nan nan nan nan nan nan nan nan nan nan nan nan nan nan nan nan nan nan nan 49 nan 48 47 46 48 nan nan nan nan nan nan nan nan 36 33 32 31 31 32
34 33 31 29 27 nan nan nan nan nan nan nan nan nan nan nan nan nan nan nan nan nan nan nan nan nan nan nan nan nan nan 15 13 11 8 5 5 3 10 19 23 19 nan nan nan nan nan nan nan nan nan nan nan nan nan nan nan nan nan nan nan nan nan nan nan nan 52 52 51 nan nan nan nan nan nan nan nan nan 38 36 35 37 37 36 36
33 32 30 30 nan nan nan nan nan nan nan nan nan nan nan nan nan nan nan nan nan nan nan nan nan nan nan nan nan nan nan 15 13 12 12 10 7 4 2 11 20 23 19 15 nan nan nan nan nan nan nan nan nan nan nan nan nan nan nan nan nan nan nan nan nan nan nan nan nan nan nan nan nan nan nan nan 36 35 34 34 37 39 37 38 38
32 31 31 29 nan nan nan nan nan nan nan nan nan nan nan nan nan nan nan nan nan nan nan nan nan nan nan nan nan nan nan 15 14 nan nan nan nan 6 5 4 8 15 17 16 15 14 nan nan nan nan nan nan nan nan nan nan nan nan nan nan nan nan nan nan nan nan nan nan nan nan nan nan nan nan nan nan nan 36 nan nan 39 39 38 40 41
34 32 32 nan nan nan nan 21 20 18 nan nan nan nan nan nan nan nan nan nan nan nan nan nan nan nan nan nan nan nan nan nan nan nan nan nan nan nan 9 9 6 7 11 16 nan nan 16 nan nan nan nan nan nan nan nan nan nan nan nan nan nan nan nan nan nan nan nan nan nan nan nan nan nan nan nan nan nan nan 35 37 39 40 40 41 43
35 31 30 nan nan 24 nan 21 19 nan nan nan nan nan nan nan nan nan nan nan nan nan nan nan nan nan nan nan nan nan nan nan nan nan nan nan nan nan nan nan 8 7 9 11 15 18 18 nan 21 nan nan nan nan nan nan nan nan nan nan nan nan nan nan nan nan nan nan nan nan nan nan nan nan nan nan nan nan nan nan nan nan nan nan nan nan
35 29 nan nan nan 22 22 nan nan nan nan nan nan nan 19 nan nan nan nan nan nan nan nan nan nan nan nan nan nan nan nan nan nan nan nan nan nan nan nan nan nan nan nan 8 8 15 17 20 22 23 23 23 nan nan nan nan nan nan nan nan nan nan nan nan nan nan nan nan nan nan nan nan nan nan nan nan nan nan nan nan nan nan nan nan nan
30 24 nan nan nan nan nan nan nan nan nan nan nan nan nan nan nan nan nan nan nan nan nan nan nan nan nan nan nan nan nan nan nan nan nan nan nan nan nan nan nan nan nan nan 10 12 12 nan nan nan nan nan nan nan nan nan nan nan nan nan nan nan nan nan nan nan nan nan nan nan nan nan nan nan nan nan nan nan nan nan nan nan nan nan nan
24 nan nan nan 18 19 nan nan nan nan nan nan nan nan nan nan nan nan nan nan nan nan nan nan nan nan nan nan nan nan nan nan nan nan nan nan nan nan nan nan nan nan nan nan nan nan nan nan nan nan nan nan nan nan nan nan nan nan nan nan nan nan nan nan nan nan nan nan nan nan nan nan nan nan nan nan nan nan nan nan nan nan nan nan nan
25 nan nan nan 16 17 18 nan nan nan nan nan nan nan nan nan nan nan nan nan nan nan nan nan nan nan nan nan nan nan nan nan nan nan nan nan nan nan nan nan nan nan nan nan nan nan nan nan nan nan nan nan nan nan nan nan nan nan nan nan nan nan nan nan nan nan nan nan nan nan nan nan nan nan nan nan nan nan nan nan nan nan nan nan nan
24 20 18 nan nan nan 17 18 18 nan nan nan nan nan nan nan nan nan nan nan nan nan nan nan nan nan nan nan nan nan nan nan nan nan nan nan nan nan nan nan nan nan nan nan nan nan nan nan nan nan nan nan nan nan nan nan nan nan nan nan nan nan nan nan nan nan nan nan nan nan nan nan nan nan nan nan nan nan nan nan nan nan nan nan nan
19 16 12 15 19 18 18 nan nan nan nan nan nan nan nan nan 23 nan nan nan nan nan nan nan nan nan nan nan nan nan nan nan nan nan nan nan nan nan nan nan nan nan nan nan nan nan nan nan nan nan nan nan nan nan nan nan nan nan nan nan nan nan nan nan nan nan nan nan 30 31 nan nan nan nan nan nan nan nan nan nan nan nan nan nan nan
15 nan nan 16 20 23 23 nan 25 27 28 nan nan nan nan nan nan nan nan nan nan nan nan nan nan nan nan nan nan nan nan nan nan nan nan nan nan nan nan nan nan nan nan nan nan nan nan nan nan nan nan nan nan nan nan nan nan nan nan nan nan nan nan nan nan nan 16 18 19 20 21 22 nan nan nan nan nan nan nan nan nan nan nan nan nan
19 18 17 18 25 29 29 29 28 28 nan nan nan nan nan nan nan nan nan nan nan nan nan nan nan nan nan nan nan nan nan nan nan nan nan nan nan nan nan nan nan nan nan nan nan nan nan nan nan nan nan nan nan nan nan nan nan nan nan nan nan nan 24 22 nan nan 18 17 17 18 19 20 nan nan nan nan nan nan nan nan nan nan nan nan nan
28 23 18 20 nan 29 29 28 28 28 28 nan nan nan nan nan nan nan nan nan nan nan nan nan nan nan nan nan nan nan nan nan nan nan nan nan nan nan nan nan nan nan nan nan nan nan nan nan nan nan nan nan nan nan nan nan nan nan nan nan nan nan nan nan 25 24 23 22 nan nan nan nan nan nan nan nan nan nan nan nan nan nan nan nan nan
29 30 nan nan 23 26 27 26 26 27 27 nan nan nan nan nan nan nan nan nan nan nan nan nan nan nan nan nan nan nan nan nan nan nan nan nan nan nan nan nan nan nan nan nan nan nan nan nan nan nan nan nan nan nan nan nan nan nan nan nan nan nan nan nan nan nan 30 29 27 28 28 28 27 28 28 29 29 nan nan nan nan nan nan nan nan
27 25 nan nan 24 27 28 27 27 27 nan nan nan nan nan nan nan nan nan nan nan nan nan nan nan nan nan nan nan nan nan nan nan nan nan nan nan nan nan nan nan nan nan nan nan nan nan nan nan nan nan nan nan nan nan nan nan nan nan nan nan nan nan nan nan nan nan nan 31 31 31 31 31 32 33 33 32 32 33 32 nan nan nan nan nan
27 27 28 26 26 28 30 29 28 nan nan nan nan nan nan nan nan nan nan nan nan nan nan nan nan nan nan nan nan nan nan nan nan nan nan nan nan nan nan nan nan nan nan nan nan nan nan nan nan nan nan nan nan nan nan nan nan nan nan nan nan nan nan nan nan nan nan nan nan nan nan nan nan 35 34 33 35 35 35 35 35 34 34 nan nan
29 29 29 28 29 30 30 30 nan nan nan nan nan nan nan nan nan nan nan nan nan nan nan nan nan nan nan nan nan nan nan nan nan nan nan nan nan nan nan nan nan nan nan nan nan nan nan nan nan nan nan nan nan nan nan nan nan nan nan nan nan nan nan nan nan nan nan nan nan nan nan nan nan nan nan nan nan nan 38 38 37 37 37 37 nan
29 30 30 nan 30 30 30 nan nan nan nan nan nan nan nan nan nan nan nan nan nan nan nan nan nan nan nan nan nan nan nan nan nan nan nan nan nan nan nan nan nan nan nan nan nan nan nan nan nan nan nan nan nan nan nan nan nan nan nan nan nan nan nan nan nan nan nan nan nan nan nan nan nan nan nan nan nan nan nan nan 39 38 37 39 41
nan 31 31 30 30 nan nan nan nan nan nan nan nan nan nan nan nan nan nan nan nan nan nan nan nan nan nan nan nan nan nan nan nan nan nan nan nan nan nan nan nan nan nan nan nan nan nan nan nan nan nan nan nan nan nan nan nan nan nan nan nan nan nan nan nan nan nan nan nan nan nan nan nan nan nan nan nan nan nan nan 40 39 40 nan 42
29 nan nan nan nan nan nan nan nan nan nan nan nan nan nan nan nan nan nan nan nan nan nan nan nan nan nan nan nan nan nan nan nan nan nan nan nan nan nan nan nan nan nan nan nan nan nan nan nan nan nan nan nan nan nan nan nan nan nan nan nan nan nan nan nan nan nan nan nan nan nan nan nan nan nan nan nan nan nan nan nan 43 44 44 45
nan nan nan nan nan nan nan nan nan nan nan nan nan nan nan nan nan nan nan nan nan nan nan nan nan nan nan nan nan nan nan nan nan nan nan nan nan nan nan nan nan nan nan nan nan nan nan nan nan nan nan nan nan nan nan nan nan nan nan nan nan nan nan nan nan nan nan nan nan nan nan nan nan nan nan nan nan nan nan nan nan nan nan nan nan
nan nan nan nan nan nan nan nan nan nan nan nan nan nan nan nan nan nan nan nan nan nan nan nan nan nan nan nan nan nan nan nan nan nan nan nan nan nan nan nan nan nan nan nan nan nan nan nan nan nan nan nan nan nan nan nan nan nan nan nan nan nan nan nan nan nan nan nan nan nan nan nan nan nan nan nan nan nan nan nan nan nan nan nan nan
nan nan nan nan nan nan nan nan nan nan nan nan nan nan nan nan nan nan nan nan nan nan nan nan nan nan nan nan nan nan nan nan nan nan nan nan nan nan nan nan nan nan nan nan nan nan nan nan nan nan nan nan nan nan nan nan nan nan nan nan nan nan nan nan nan nan nan nan nan nan nan nan nan nan nan nan nan nan nan nan nan nan nan nan nan
nan nan nan nan nan nan nan nan nan nan nan nan nan nan nan nan nan nan nan nan nan nan nan nan nan nan nan nan nan nan nan nan nan nan nan nan nan nan nan nan nan nan nan nan nan nan nan nan nan nan nan nan nan nan nan nan nan nan nan nan nan nan nan nan nan nan nan nan nan nan nan nan nan nan nan nan nan nan nan nan nan nan nan nan nan
nan nan nan nan nan nan nan nan nan nan nan nan nan nan nan nan nan nan nan nan nan nan nan nan nan nan nan nan nan nan nan nan nan nan nan nan nan nan nan nan nan nan nan nan nan nan nan nan nan nan nan nan nan nan nan nan nan nan nan nan nan nan nan nan nan nan nan nan nan nan nan nan nan nan nan nan nan nan nan nan nan nan nan nan nan
nan nan nan nan nan nan nan nan nan nan nan nan nan nan nan nan nan nan nan nan nan nan nan nan nan nan nan nan nan nan nan nan nan nan nan nan nan nan nan nan nan nan nan nan nan nan nan nan nan nan nan nan nan nan nan nan nan nan nan nan nan nan nan nan nan nan nan nan nan nan nan nan nan nan nan nan nan nan nan nan nan nan nan nan nan
Wind_Direction
nan nan nan nan nan nan nan nan nan nan nan nan nan nan nan 302 299 297 292 291 292 293 292 290 285 277 270 267 264 263 263 262 262 260 257 258 259 260 260 262 262 259 258 257 256 258 nan nan nan nan nan 249 247 246 247 243 nan nan nan 233 237 241 244 245 243 233 239 246 243 242 243 247 243 251 249 249 251 253 257 256 257 257 258 258 258
nan nan nan nan nan nan nan nan nan nan nan nan nan nan nan nan 300 296 295 295 294 294 292 290 288 281 274 270 267 266 266 265 262 261 259 257 259 260 259 259 259 258 257 255 257 257 257 255 254 250 248 247 246 245 245 nan nan nan nan nan 235 240 245 246 242 240 232 243 241 242 242 248 244 248 253 251 249 250 254 255 255 257 258 258 257
nan nan nan nan nan nan nan nan nan nan nan nan nan nan nan nan 301 298 297 296 295 294 291 288 284 279 274 270 268 267 266 264 262 261 260 260 261 264 262 258 257 256 255 253 252 252 251 252 253 250 246 244 242 241 243 242 nan nan nan nan nan nan 242 245 243 239 236 237 243 241 248 251 251 248 250 250 250 252 252 253 254 253 255 257 257
nan nan nan nan nan nan nan nan nan nan nan nan nan nan nan nan 305 303 303 300 297 293 289 283 279 274 270 269 268 265 261 258 257 258 257 257 257 259 257 254 255 257 254 250 248 246 247 249 250 247 243 242 nan 241 242 241 nan nan nan nan nan nan 238 239 240 238 236 236 243 244 246 249 243 242 246 248 250 251 254 251 250 249 249 252 256
nan nan nan nan nan nan nan nan nan nan nan nan nan nan nan nan 311 309 306 303 301 296 288 281 276 271 267 269 266 259 253 250 249 251 252 253 253 250 248 246 249 252 249 247 246 244 244 247 250 248 242 239 nan nan 243 244 241 nan nan nan nan nan nan 237 237 235 234 237 240 244 243 242 241 243 249 251 248 249 250 254 252 249 247 248 251
nan nan nan nan nan nan nan nan nan nan nan 317 nan nan nan 317 315 314 311 308 305 301 294 284 278 270 269 274 266 250 243 243 244 246 247 248 249 249 246 245 245 246 245 244 241 239 240 nan nan nan 244 240 nan nan 244 244 240 235 nan nan nan nan nan nan 236 236 235 232 238 240 244 241 238 242 248 252 251 248 247 248 248 249 249 246 251
nan nan nan nan nan nan nan nan 319 317 317 321 323 nan nan nan 317 317 313 310 307 302 296 291 285 276 277 281 268 244 234 235 236 237 238 241 245 248 246 244 242 244 246 247 243 239 nan 241 247 nan nan nan 239 240 242 238 234 nan nan nan nan nan nan nan 236 236 236 232 234 241 241 241 241 238 nan nan 249 251 249 245 245 252 254 255 249
nan nan nan nan nan nan nan nan 319 319 319 323 327 327 nan nan 318 318 317 314 306 301 296 293 287 281 283 283 269 248 234 232 229 227 225 229 235 235 236 236 235 237 nan nan nan nan nan nan nan 247 244 241 239 237 238 231 nan nan nan nan nan nan nan nan nan nan nan 234 235 240 245 242 237 nan nan nan 242 235 246 250 248 249 253 nan nan
nan nan nan nan nan nan nan nan 320 319 319 323 328 328 324 320 317 318 319 313 304 297 296 294 290 284 282 276 260 246 235 229 228 223 217 217 224 229 230 231 nan nan 235 239 243 nan nan nan nan nan nan 237 nan nan nan nan nan nan nan nan nan nan nan nan nan nan nan nan nan 238 nan 244 nan nan nan nan nan 239 244 251 247 nan 253 nan nan
nan nan nan nan nan nan nan nan 319 317 319 324 328 330 327 322 317 316 315 308 302 302 306 309 302 291 275 258 247 249 251 244 nan nan nan nan nan nan nan nan nan nan nan 237 241 nan nan nan nan nan nan nan nan nan nan nan nan nan nan nan nan nan nan nan nan nan nan nan nan nan nan nan nan nan nan nan 238 238 244 250 249 249 nan nan nan
nan nan nan nan nan nan nan nan 316 316 319 322 328 332 331 325 319 318 319 310 300 303 314 320 313 299 281 258 244 258 259 250 nan nan nan nan nan nan nan nan nan nan nan nan nan nan nan nan nan nan nan nan nan nan nan nan nan nan nan nan nan nan nan nan nan nan nan nan nan nan nan 237 nan 240 235 233 239 245 247 250 nan nan nan nan nan
nan nan nan nan nan nan nan nan nan 316 316 nan nan 331 330 328 323 320 322 317 307 302 305 307 307 303 292 279 278 277 265 243 nan nan nan nan nan nan nan nan nan nan nan nan nan nan nan nan 232 nan nan nan nan nan nan nan nan nan nan nan nan nan nan nan nan nan nan nan nan 235 235 234 nan nan nan 239 239 242 245 248 nan nan nan nan nan
nan nan nan nan nan nan nan nan nan nan nan nan nan 326 327 329 326 321 324 323 315 307 301 296 296 290 291 293 287 283 279 249 nan nan nan nan nan nan nan nan nan nan nan 247 244 242 244 nan nan nan 238 243 235 nan nan nan nan nan nan nan nan nan nan nan nan 247 245 243 239 234 234 233 nan nan 242 242 241 243 nan nan nan nan nan nan nan
nan nan nan nan nan nan nan nan nan nan nan nan nan 323 325 329 330 325 323 321 320 317 306 302 299 288 288 299 305 299 287 260 nan nan nan nan nan nan nan nan nan nan 237 244 245 240 nan nan nan 239 244 240 nan nan nan nan nan nan nan nan nan nan nan nan 246 245 247 244 242 236 232 nan nan 235 240 243 245 nan nan nan nan nan nan nan nan
nan nan nan nan nan nan nan nan nan nan nan nan nan 320 323 326 327 324 321 321 319 317 310 303 304 297 290 304 313 301 284 252 nan nan nan nan nan nan nan nan 243 237 243 246 242 nan nan nan 243 252 249 241 nan nan nan nan nan nan nan nan nan nan nan 239 237 236 237 237 238 nan nan nan nan 233 238 242 243 nan nan nan nan nan nan nan 245
nan nan nan nan nan nan nan nan nan nan nan nan 310 316 319 323 325 322 319 nan nan 317 316 315 321 317 305 303 307 294 283 255 nan nan nan nan nan nan nan 231 237 244 240 nan nan nan nan nan nan 256 250 244 nan nan nan nan nan nan nan nan 232 235 235 236 239 234 233 234 234 nan 230 233 234 234 238 239 240 nan 241 240 243 246 248 249 250
nan nan nan nan nan nan nan nan nan nan nan nan 310 314 316 317 319 317 318 nan nan nan 317 323 325 321 303 281 283 291 286 267 nan nan nan nan nan nan nan 235 240 237 nan nan nan nan nan nan 231 238 nan nan nan nan 243 236 nan nan nan nan nan nan 234 234 234 234 231 nan 231 230 230 234 239 240 242 245 244 244 243 245 247 248 249 248 248
nan nan nan nan nan nan nan nan nan nan nan nan 310 314 314 316 319 316 318 nan nan nan 316 324 328 321 309 286 276 291 298 279 253 nan nan nan nan nan nan nan nan nan nan nan nan nan nan nan nan nan nan nan nan nan nan nan nan nan nan nan nan nan nan 236 235 231 231 229 227 229 234 238 244 246 246 246 248 247 245 246 246 249 249 251 251
nan nan nan nan nan nan nan nan nan nan nan 301 306 309 309 313 314 313 nan nan 320 nan 309 316 318 317 316 302 279 280 342 310 261 nan nan nan nan nan nan nan nan nan nan nan nan nan nan nan nan nan nan nan nan nan nan nan nan nan nan nan nan nan nan nan nan nan nan 235 233 236 235 240 243 243 241 244 246 243 241 242 245 247 249 250 251
321 320 318 313 308 nan nan nan nan nan nan 296 301 307 307 306 nan nan nan nan 316 nan nan 301 309 312 315 312 292 277 324 357 265 nan nan nan nan nan nan nan nan nan nan nan nan nan nan nan nan nan nan nan nan nan nan nan nan nan nan nan nan nan nan nan nan nan nan nan 238 240 242 243 242 241 239 236 236 237 240 240 242 244 245 247 249
320 320 317 313 307 nan nan nan nan nan nan 297 300 301 300 nan nan nan nan nan 309 nan nan nan 296 301 305 316 310 285 289 325 286 209 nan nan nan nan nan nan nan nan nan nan nan nan nan nan nan nan nan nan nan nan nan nan nan nan nan nan nan nan nan nan nan nan nan nan nan 237 239 241 241 238 240 238 235 234 235 236 235 239 242 243 242
319 317 317 315 308 nan nan nan nan 301 294 291 292 nan nan nan nan nan nan nan 306 nan nan nan nan nan nan 307 313 302 289 298 298 221 nan nan nan nan nan nan nan nan nan nan nan nan nan nan nan nan nan nan nan nan nan nan nan nan nan nan nan nan nan 229 224 228 nan nan 237 236 237 241 242 239 238 235 nan nan 230 230 230 232 236 239 241
318 316 315 315 310 307 nan nan nan nan nan nan 294 nan nan nan nan nan nan nan nan nan nan nan nan nan nan nan 307 308 298 294 297 294 nan 211 210 214 nan nan nan nan nan nan nan nan nan nan nan nan nan nan nan nan nan nan nan nan nan nan nan nan nan 223 nan 222 228 232 234 237 236 238 237 nan nan nan nan 223 225 226 228 232 235 236 238
318 315 314 314 310 306 nan nan nan nan nan nan nan nan nan nan nan nan nan nan nan nan nan nan nan nan nan nan nan nan 304 301 301 303 300 272 224 217 223 nan nan nan nan nan nan nan nan nan nan nan nan nan nan nan nan nan nan nan nan nan nan nan nan nan nan 220 nan 229 233 234 235 nan nan nan nan nan nan nan nan 221 227 235 237 238 241
318 315 313 311 310 nan nan nan nan nan nan nan nan nan nan nan nan nan nan nan nan nan nan nan nan nan nan nan nan nan nan 304 301 302 298 298 291 247 219 225 224 228 nan nan nan nan nan nan nan nan nan nan nan nan nan nan nan nan nan nan nan nan nan nan nan nan 225 227 227 nan nan nan nan nan nan nan nan nan 221 220 226 230 233 235 237
319 317 312 308 nan nan nan nan nan nan nan nan nan nan nan nan nan nan nan nan nan nan nan nan nan nan nan nan nan nan nan 306 302 301 296 280 278 295 234 229 239 240 241 243 nan nan nan nan nan nan nan nan nan nan nan nan nan nan nan nan nan nan nan nan nan nan nan nan nan nan nan nan nan nan nan nan 222 223 225 229 235 235 236 239 236
318 313 308 307 nan nan nan nan nan nan nan nan nan nan nan nan nan nan nan nan nan nan nan nan nan nan nan nan nan nan nan 305 302 nan nan nan nan 254 275 277 256 247 242 238 232 227 nan nan nan nan nan nan nan nan nan nan nan nan nan nan nan nan nan nan nan nan nan nan nan nan nan nan nan nan nan nan nan 221 nan nan 235 233 235 236 236
316 312 306 nan nan nan nan 300 298 296 nan nan nan nan nan nan nan nan nan nan nan nan nan nan nan nan nan nan nan nan nan nan nan nan nan nan nan nan 252 255 250 238 237 236 nan nan 220 nan nan nan nan nan nan nan nan nan nan nan nan nan nan nan nan nan nan nan nan nan nan nan nan nan nan nan nan nan nan nan 225 231 235 235 232 234 234
308 303 300 nan nan 295 nan 296 296 nan nan nan nan nan nan nan nan nan nan nan nan nan nan nan nan nan nan nan nan nan nan nan nan nan nan nan nan nan nan nan 253 233 219 210 233 232 224 nan 208 nan nan nan nan nan nan nan nan nan nan nan nan nan nan nan nan nan nan nan nan nan nan nan nan nan nan nan nan nan nan nan nan nan nan nan nan
300 296 nan nan nan 294 293 nan nan nan nan nan nan nan 292 nan nan nan nan nan nan nan nan nan nan nan nan nan nan nan nan nan nan nan nan nan nan nan nan nan nan nan nan 190 234 235 229 218 215 214 212 211 nan nan nan nan nan nan nan nan nan nan nan nan nan nan nan nan nan nan nan nan nan nan nan nan nan nan nan nan nan nan nan nan nan
298 292 nan nan nan nan nan nan nan nan nan nan nan nan nan nan nan nan nan nan nan nan nan nan nan nan nan nan nan nan nan nan nan nan nan nan nan nan nan nan nan nan nan nan 263 251 236 nan nan nan nan nan nan nan nan nan nan nan nan nan nan nan nan nan nan nan nan nan nan nan nan nan nan nan nan nan nan nan nan nan nan nan nan nan nan
300 nan nan nan 289 289 nan nan nan nan nan nan nan nan nan nan nan nan nan nan nan nan nan nan nan nan nan nan nan nan nan nan nan nan nan nan nan nan nan nan nan nan nan nan nan nan nan nan nan nan nan nan nan nan nan nan nan nan nan nan nan nan nan nan nan nan nan nan nan nan nan nan nan nan nan nan nan nan nan nan nan nan nan nan nan
298 nan nan nan 292 289 291 nan nan nan nan nan nan nan nan nan nan nan nan nan nan nan nan nan nan nan nan nan nan nan nan nan nan nan nan nan nan nan nan nan nan nan nan nan nan nan nan nan nan nan nan nan nan nan nan nan nan nan nan nan nan nan nan nan nan nan nan nan nan nan nan nan nan nan nan nan nan nan nan nan nan nan nan nan nan
295 286 286 nan nan nan 289 289 284 nan nan nan nan nan nan nan nan nan nan nan nan nan nan nan nan nan nan nan nan nan nan nan nan nan nan nan nan nan nan nan nan nan nan nan nan nan nan nan nan nan nan nan nan nan nan nan nan nan nan nan nan nan nan nan nan nan nan nan nan nan nan nan nan nan nan nan nan nan nan nan nan nan nan nan nan
289 286 300 303 302 302 293 nan nan nan nan nan nan nan nan nan 274 nan nan nan nan nan nan nan nan nan nan nan nan nan nan nan nan nan nan nan nan nan nan nan nan nan nan nan nan nan nan nan nan nan nan nan nan nan nan nan nan nan nan nan nan nan nan nan nan nan nan nan 227 229 nan nan nan nan nan nan nan nan nan nan nan nan nan nan nan
285 nan nan 295 293 293 285 nan 277 275 273 nan nan nan nan nan nan nan nan nan nan nan nan nan nan nan nan nan nan nan nan nan nan nan nan nan nan nan nan nan nan nan nan nan nan nan nan nan nan nan nan nan nan nan nan nan nan nan nan nan nan nan nan nan nan nan 233 228 226 229 233 235 nan nan nan nan nan nan nan nan nan nan nan nan nan
272 269 273 279 285 281 275 272 271 270 nan nan nan nan nan nan nan nan nan nan nan nan nan nan nan nan nan nan nan nan nan nan nan nan nan nan nan nan nan nan nan nan nan nan nan nan nan nan nan nan nan nan nan nan nan nan nan nan nan nan nan nan 274 269 nan nan 256 250 247 244 243 243 nan nan nan nan nan nan nan nan nan nan nan nan nan
274 269 269 274 nan 277 274 270 269 268 269 nan nan nan nan nan nan nan nan nan nan nan nan nan nan nan nan nan nan nan nan nan nan nan nan nan nan nan nan nan nan nan nan nan nan nan nan nan nan nan nan nan nan nan nan nan nan nan nan nan nan nan nan nan 260 259 259 260 nan nan nan nan nan nan nan nan nan nan nan nan nan nan nan nan nan
291 287 nan nan 269 273 271 270 270 270 269 nan nan nan nan nan nan nan nan nan nan nan nan nan nan nan nan nan nan nan nan nan nan nan nan nan nan nan nan nan nan nan nan nan nan nan nan nan nan nan nan nan nan nan nan nan nan nan nan nan nan nan nan nan nan nan 241 240 243 249 251 251 253 253 254 254 251 nan nan nan nan nan nan nan nan
277 278 nan nan 275 271 271 270 269 270 nan nan nan nan nan nan nan nan nan nan nan nan nan nan nan nan nan nan nan nan nan nan nan nan nan nan nan nan nan nan nan nan nan nan nan nan nan nan nan nan nan nan nan nan nan nan nan nan nan nan nan nan nan nan nan nan nan nan 240 239 245 248 251 249 249 250 251 250 249 249 nan nan nan nan nan
275 280 283 277 271 272 272 270 271 nan nan nan nan nan nan nan nan nan nan nan nan nan nan nan nan nan nan nan nan nan nan nan nan nan nan nan nan nan nan nan nan nan nan nan nan nan nan nan nan nan nan nan nan nan nan nan nan nan nan nan nan nan nan nan nan nan nan nan nan nan nan nan nan 254 254 251 251 251 250 249 248 249 250 nan nan
278 279 280 279 276 273 271 271 nan nan nan nan nan nan nan nan nan nan nan nan nan nan nan nan nan nan nan nan nan nan nan nan nan nan nan nan nan nan nan nan nan nan nan nan nan nan nan nan nan nan nan nan nan nan nan nan nan nan nan nan nan nan nan nan nan nan nan nan nan nan nan nan nan nan nan nan nan nan 252 252 252 251 251 252 nan
278 278 277 nan 274 273 274 nan nan nan nan nan nan nan nan nan nan nan nan nan nan nan nan nan nan nan nan nan nan nan nan nan nan nan nan nan nan nan nan nan nan nan nan nan nan nan nan nan nan nan nan nan nan nan nan nan nan nan nan nan nan nan nan nan nan nan nan nan nan nan nan nan nan nan nan nan nan nan nan nan 251 253 255 257 256
nan 272 274 274 274 nan nan nan nan nan nan nan nan nan nan nan nan nan nan nan nan nan nan nan nan nan nan nan nan nan nan nan nan nan nan nan nan nan nan nan nan nan nan nan nan nan nan nan nan nan nan nan nan nan nan nan nan nan nan nan nan nan nan nan nan nan nan nan nan nan nan nan nan nan nan nan nan nan nan nan 251 250 251 nan 253
272 nan nan nan nan nan nan nan nan nan nan nan nan nan nan nan nan nan nan nan nan nan nan nan nan nan nan nan nan nan nan nan nan nan nan nan nan nan nan nan nan nan nan nan nan nan nan nan nan nan nan nan nan nan nan nan nan nan nan nan nan nan nan nan nan nan nan nan nan nan nan nan nan nan nan nan nan nan nan nan nan 253 250 250 253
nan nan nan nan nan nan nan nan nan nan nan nan nan nan nan nan nan nan nan nan nan nan nan nan nan nan nan nan nan nan nan nan nan nan nan nan nan nan nan nan nan nan nan nan nan nan nan nan nan nan nan nan nan nan nan nan nan nan nan nan nan nan nan nan nan nan nan nan nan nan nan nan nan nan nan nan nan nan nan nan nan nan nan nan nan
nan nan nan nan nan nan nan nan nan nan nan nan nan nan nan nan nan nan nan nan nan nan nan nan nan nan nan nan nan nan nan nan nan nan nan nan nan nan nan nan nan nan nan nan nan nan nan nan nan nan nan nan nan nan nan nan nan nan nan nan nan nan nan nan nan nan nan nan nan nan nan nan nan nan nan nan nan nan nan nan nan nan nan nan nan
nan nan nan nan nan nan nan nan nan nan nan nan nan nan nan nan nan nan nan nan nan nan nan nan nan nan nan nan nan nan nan nan nan nan nan nan nan nan nan nan nan nan nan nan nan nan nan nan nan nan nan nan nan nan nan nan nan nan nan nan nan nan nan nan nan nan nan nan nan nan nan nan nan nan nan nan nan nan nan nan nan nan nan nan nan
nan nan nan nan nan nan nan nan nan nan nan nan nan nan nan nan nan nan nan nan nan nan nan nan nan nan nan nan nan nan nan nan nan nan nan nan nan nan nan nan nan nan nan nan nan nan nan nan nan nan nan nan nan nan nan nan nan nan nan nan nan nan nan nan nan nan nan nan nan nan nan nan nan nan nan nan nan nan nan nan nan nan nan nan nan
nan nan nan nan nan nan nan nan nan nan nan nan nan nan nan nan nan nan nan nan nan nan nan nan nan nan nan nan nan nan nan nan nan nan nan nan nan nan nan nan nan nan nan nan nan nan nan nan nan nan nan nan nan nan nan nan nan nan nan nan nan nan nan nan nan nan nan nan nan nan nan nan nan nan nan nan nan nan nan nan nan nan nan nan nan
nan nan nan nan nan nan nan nan nan nan nan nan nan nan nan nan nan nan nan nan nan nan nan nan nan nan nan nan nan nan nan nan nan nan nan nan nan nan nan nan nan nan nan nan nan nan nan nan nan nan nan nan nan nan nan nan nan nan nan nan nan nan nan nan nan nan nan nan nan nan nan nan nan nan nan nan nan nan nan nan nan nan nan nan nan